[[{"header":{"parameterUnit":"m.s-1","parameterCategory":1,"la1":30.2991,"la2":30.254,"lo1":-89.0895,"lo2":-89.0444,"dy":0.0017,"dx":0.0017,"nx":28,"ny":28,"refTime":"2023-11-04T21:00:00:Z","depth":0,"parameterNumber":2,"parameterNumberName":"U-component_of_WINDS"},"data":[0,0,0,0,0,0,0,0,0,0,0,0,0,0,0,0,0,0,0,0,0,0,0,0,0,0,0,0,0,0,0,0,0,0,0,0,0,0,0,0,0,0,0,0,0,0,0,0,0,0,0,0,0,0,0,0,0,0,0.3536,0.3536,0,0.3565,0.3566,0.3566,0.3565,0.3565,0.3564,0.3564,0.3595,0.3596,0.3598,0,0,0,0,0,0,0,0,0,0,0,0,0,0.3482,0.3483,0.3536,0.3536,0.3537,0.3565,0.3566,0.3566,0.3565,0.3565,0.3564,0.3564,0.3595,0.3596,0.3598,0,0,0,0,0,0,0,0,0,0,0,0,0,0.3508,0.3483,0.3536,0.354,0.354,0.3565,0.3566,0.3566,0.3565,0.3565,0.3564,0.3563,0.3594,0.3596,0.3598,0.3621,0,0,0.3603,0.3604,0,0,0,0,0,0,0,0,0.3506,0.351,0.3539,0.354,0.354,0.3561,0.3558,0.3585,0.3565,0.3556,0.3564,0.3563,0.3584,0.3587,0.3594,0.3623,0.3624,0.3604,0.3605,0.3605,0.3606,0,0,0,0,0,0,0,0.3504,0.3508,0.3548,0.3539,0.354,0.3541,0.3544,0.3563,0.3573,0.3557,0.3557,0.356,0.3585,0.3592,0.3594,0.3624,0.3603,0.3605,0.3606,0.3607,0.3676,0.3676,0,0,0,0,0,0,0.3502,0.3507,0.3547,0.3548,0.3521,0.3542,0.3546,0.3555,0.3573,0.3575,0.356,0.356,0.3589,0.3592,0.3596,0.3625,0.3605,0.3607,0.3608,0.3675,0.3676,0.3677,0,0,0,0,0,0,0.35,0.3505,0.3546,0.3528,0.3533,0.3544,0.3554,0.3556,0.3563,0.3576,0.3578,0.3566,0.3589,0.3593,0.3615,0.3626,0.3608,0.361,0.3674,0.3675,0.3676,0.3683,0,0,0,0,0,0,0.3499,0.3505,0.3513,0.3528,0.3534,0.3564,0.3555,0.3557,0.3566,0.3566,0.3582,0.3584,0.3589,0.3612,0.3617,0.3628,0.3611,0.3673,0.3674,0.3676,0.3682,0.3685,0.3687,0,0,0,0,0,0.3497,0.3514,0.3513,0.3518,0.3544,0.3564,0.3568,0.3573,0.3567,0.3576,0.3584,0.3583,0.3624,0.3615,0.362,0.3632,0.3672,0.3674,0.3676,0.3681,0.3684,0.3686,0,0,0,0,0,0,0.35,0.3516,0.3516,0.3538,0.355,0.3564,0.3575,0.3576,0.359,0.3589,0.3595,0.3599,0.3621,0.3628,0.3618,0.3656,0.3648,0.365,0.365,0.3653,0.3655,0.3653,0.3613,0,0,0,0,0,0.3504,0.3518,0.3531,0.3549,0.3555,0.3564,0.3573,0.3576,0.3589,0.3594,0.3604,0.3617,0.3633,0.3643,0.3659,0.3683,0.3688,0.3694,0.3697,0.3698,0.3701,0.3716,0.3719,0.3682,0.3682,0.3682,0,0,0.351,0.3521,0.3529,0.355,0.356,0.3575,0.3569,0.3585,0.3597,0.3597,0.3618,0.3626,0.3641,0.3665,0.3676,0.3672,0.3712,0.37,0.3702,0.3703,0.3718,0.3721,0.3724,0.3683,0.3683,0.3683,0,0,0.3531,0.354,0.3557,0.3567,0.3581,0.3587,0.3592,0.3606,0.3611,0.3633,0.3634,0.3648,0.3675,0.3686,0.3696,0.3722,0.3722,0.3727,0.3738,0.3753,0.3756,0.3758,0.3769,0.3772,0.3729,0.3729,0.3729,0,0.3538,0.3561,0.3565,0.3582,0.3592,0.3592,0.361,0.362,0.3639,0.3646,0.3641,0.3676,0.3686,0.3713,0.3719,0.3727,0.3732,0.3725,0.3755,0.3757,0.376,0.377,0.3774,0.373,0.373,0.373,0.3729,0,0.3569,0.3585,0.3597,0.3615,0.3626,0.3643,0.3651,0.3662,0.3664,0.3671,0.3694,0.3707,0.3725,0.3731,0.3734,0.3759,0.3757,0.3753,0.3745,0.3764,0.3773,0.3777,0.373,0.373,0.373,0.373,0,0,0.3592,0.3613,0.3617,0.3626,0.3643,0.3656,0.3674,0.3691,0.3701,0.3714,0.373,0.3753,0.3751,0.3761,0.3765,0.3778,0.3799,0.3773,0.3774,0.3778,0.3829,0.3832,0.3836,0.3799,0.38,0.3801,0.3828,0,0.3614,0.3645,0.365,0.3678,0.3693,0.3695,0.371,0.3723,0.373,0.3745,0.3753,0.377,0.3765,0.3772,0.3784,0.3794,0.381,0.3792,0.3815,0.3816,0.3811,0.3841,0.3843,0.3868,0.3832,0.3832,0.3833,0,0.3645,0.3659,0.3688,0.3703,0.371,0.3724,0.3741,0.3755,0.377,0.3775,0.3787,0.379,0.3809,0.38,0.3828,0.3816,0.3826,0.3832,0.3833,0.3836,0.3825,0.3844,0.3876,0.388,0.3839,0.3838,0.3838,0,0.3659,0.3686,0.3706,0.3714,0.3733,0.3743,0.3751,0.3765,0.3776,0.3792,0.3799,0.3816,0.3826,0.384,0.3849,0.3841,0.3876,0.3868,0.3881,0.3881,0.3889,0.3888,0.3923,0.3895,0.3894,0.3894,0.3894,0,0.3684,0.3702,0.3713,0.3726,0.3746,0.3753,0.3773,0.3782,0.3795,0.381,0.3813,0.3827,0.3837,0.3853,0.386,0.3882,0.3887,0.3892,0.3893,0.3892,0.3891,0.3898,0.3897,0.3895,0.3895,0.3895,0.3895,0,0.3703,0.3712,0.3735,0.3751,0.3756,0.377,0.3784,0.3797,0.3805,0.3825,0.383,0.3842,0.3861,0.3871,0.3895,0.39,0.3926,0.3926,0.392,0.3921,0.3935,0.3933,0.3976,0.3982,0.3949,0.3949,0.3949,0,0.3719,0.3732,0.375,0.3761,0.3769,0.3786,0.3797,0.3804,0.3816,0.3835,0.3846,0.3865,0.3881,0.3913,0.3924,0.3943,0.3944,0.3958,0.3947,0.3945,0.3945,0.3945,0.3946,0.396,0.396,0.396,0.3961,0,0.3745,0.3749,0.3765,0.3782,0.3795,0.3809,0.3823,0.3832,0.3842,0.3855,0.3875,0.3887,0.3912,0.3932,0.3952,0.3962,0.3963,0.3964,0.3968,0.3967,0.3963,0.3966,0.3926,0.3963,0.3963,0.3962,0.3962,0.3962,0.3764,0.3776,0.3791,0.3809,0.382,0.3833,0.3847,0.3856,0.3873,0.3893,0.3897,0.3918,0.3935,0.3962,0.3972,0.399,0.3987,0.3993,0.3994,0.3996,0.3997,0.396,0.3993,0.3993,0.3993,0.3993,0.3993,0,0.3791,0.3801,0.3817,0.3836,0.3851,0.3851,0.3867,0.3879,0.3897,0.3912,0.3927,0.3951,0.397,0.3984,0.4004,0.4016,0.4017,0.4021,0.402,0.4023,0.3998,0.3993,0.402,0.402,0.402,0.402,0.402,0.4019,0.3807,0.3829,0.3834,0.3862,0.3872,0.3893,0.3902,0.3915,0.3926,0.3952,0.3968,0.3977,0.3992,0.4013,0.4032,0.4035,0.4043,0.4047,0.4051,0.4027,0.4024,0.4022,0.4017,0.4048,0.4048,0.4074,0.4074,0.4074]},{"header":{"parameterUnit":"m.s-1","parameterCategory":1,"la1":30.2991,"la2":30.254,"lo1":-89.0895,"lo2":-89.0444,"dy":0.0017,"dx":0.0017,"nx":28,"ny":28,"refTime":"2023-11-04T21:00:00:Z","depth":0,"parameterNumber":3,"parameterNumberName":"V-component_of_WINDS"},"data":[0,0,0,0,0,0,0,0,0,0,0,0,0,0,0,0,0,0,0,0,0,0,0,0,0,0,0,0,0,0,0,0,0,0,0,0,0,0,0,0,0,0,0,0,0,0,0,0,0,0,0,0,0,0,0,0,0,0,-1.3538,-1.3539,0,-1.3665,-1.3667,-1.3668,-1.369,-1.3689,-1.3688,-1.3687,-1.3819,-1.3824,-1.3828,0,0,0,0,0,0,0,0,0,0,0,0,0,-1.3316,-1.332,-1.3538,-1.3539,-1.3541,-1.3665,-1.3667,-1.3668,-1.3691,-1.3689,-1.3688,-1.3687,-1.3818,-1.3823,-1.3829,0,0,0,0,0,0,0,0,0,0,0,0,0,-1.3425,-1.3322,-1.3537,-1.3567,-1.3571,-1.3664,-1.3667,-1.3669,-1.3691,-1.3689,-1.3688,-1.3686,-1.3816,-1.3823,-1.3829,-1.3903,0,0,-1.385,-1.3853,0,0,0,0,0,0,0,0,-1.3419,-1.3433,-1.3561,-1.3565,-1.357,-1.366,-1.3637,-1.3747,-1.3691,-1.3645,-1.3687,-1.3685,-1.3768,-1.3778,-1.3806,-1.3909,-1.3915,-1.3851,-1.3855,-1.3858,-1.3859,0,0,0,0,0,0,0,-1.3411,-1.3428,-1.3588,-1.3563,-1.3568,-1.3575,-1.3588,-1.3658,-1.3714,-1.3649,-1.3651,-1.3666,-1.377,-1.3799,-1.3809,-1.3917,-1.385,-1.3856,-1.386,-1.3863,-1.4089,-1.409,0,0,0,0,0,0,-1.3398,-1.3421,-1.3584,-1.3592,-1.3489,-1.358,-1.3595,-1.3633,-1.3713,-1.3724,-1.3667,-1.3666,-1.3788,-1.3801,-1.3814,-1.3907,-1.3857,-1.3864,-1.3868,-1.4087,-1.4089,-1.4091,0,0,0,0,0,0,-1.3393,-1.3412,-1.3579,-1.3507,-1.3529,-1.3585,-1.3627,-1.3636,-1.3666,-1.3727,-1.3737,-1.3687,-1.3788,-1.3804,-1.3881,-1.3911,-1.3867,-1.3873,-1.4084,-1.4087,-1.409,-1.4092,0,0,0,0,0,0,-1.3387,-1.3411,-1.3439,-1.3508,-1.3533,-1.3643,-1.3629,-1.364,-1.3677,-1.3677,-1.3748,-1.3758,-1.3788,-1.3871,-1.3888,-1.392,-1.3878,-1.4082,-1.4086,-1.4089,-1.4089,-1.4094,-1.4099,0,0,0,0,0,-1.3379,-1.3434,-1.344,-1.3459,-1.3569,-1.3645,-1.3659,-1.3692,-1.3679,-1.3708,-1.3748,-1.3756,-1.3905,-1.3878,-1.3898,-1.3932,-1.408,-1.4085,-1.4089,-1.4087,-1.4093,-1.4099,0,0,0,0,0,0,-1.3367,-1.3444,-1.3451,-1.353,-1.3581,-1.3648,-1.3686,-1.3697,-1.3753,-1.3751,-1.3789,-1.3805,-1.388,-1.3914,-1.3883,-1.4009,-1.3992,-1.4,-1.3984,-1.399,-1.3995,-1.3986,-1.3884,0,0,0,0,0,-1.3374,-1.3428,-1.3492,-1.3556,-1.3581,-1.3629,-1.3663,-1.3684,-1.3739,-1.376,-1.3806,-1.3859,-1.3918,-1.3956,-1.4013,-1.4094,-1.4111,-1.4128,-1.4132,-1.4136,-1.4143,-1.419,-1.4198,-1.4105,-1.4105,-1.4105,0,0,-1.3388,-1.3436,-1.3469,-1.3555,-1.3597,-1.3654,-1.3647,-1.3707,-1.375,-1.377,-1.3845,-1.388,-1.3942,-1.4021,-1.4058,-1.4052,-1.4172,-1.4141,-1.4144,-1.4149,-1.4195,-1.4204,-1.4212,-1.4108,-1.4108,-1.4107,0,0,-1.3443,-1.3485,-1.3543,-1.3585,-1.3648,-1.368,-1.3694,-1.3761,-1.3785,-1.386,-1.3877,-1.3929,-1.4029,-1.4073,-1.4109,-1.4181,-1.4191,-1.4199,-1.4224,-1.4269,-1.4277,-1.4283,-1.4311,-1.432,-1.4206,-1.4206,-1.4206,0,-1.3453,-1.3538,-1.3571,-1.3631,-1.3669,-1.3689,-1.3749,-1.3789,-1.3868,-1.3894,-1.3885,-1.4013,-1.4056,-1.4146,-1.4164,-1.4192,-1.421,-1.4191,-1.4273,-1.428,-1.4287,-1.4313,-1.4323,-1.4206,-1.4206,-1.4206,-1.4206,0,-1.3548,-1.3607,-1.3647,-1.3723,-1.3765,-1.3824,-1.3867,-1.3906,-1.3924,-1.3957,-1.4035,-1.4087,-1.4156,-1.4179,-1.4196,-1.4273,-1.4267,-1.4265,-1.4249,-1.4295,-1.4321,-1.4331,-1.4207,-1.4207,-1.4207,-1.4207,0,0,-1.3599,-1.3693,-1.3707,-1.3742,-1.3814,-1.3861,-1.3922,-1.3989,-1.4023,-1.4077,-1.413,-1.4215,-1.4214,-1.4254,-1.4277,-1.4316,-1.4372,-1.431,-1.4312,-1.432,-1.4461,-1.4463,-1.4474,-1.4379,-1.4381,-1.4382,-1.4456,0,-1.3664,-1.3772,-1.3804,-1.3896,-1.3952,-1.3973,-1.4026,-1.4076,-1.4109,-1.4162,-1.4198,-1.4258,-1.4252,-1.4277,-1.4316,-1.4357,-1.4401,-1.4352,-1.443,-1.4432,-1.4414,-1.4487,-1.4489,-1.4556,-1.4466,-1.4468,-1.4469,0,-1.3753,-1.3809,-1.3907,-1.3972,-1.3997,-1.4044,-1.4109,-1.4159,-1.4217,-1.4239,-1.4284,-1.4303,-1.4369,-1.4349,-1.444,-1.4406,-1.444,-1.4465,-1.4468,-1.4478,-1.4454,-1.4499,-1.4578,-1.4588,-1.4485,-1.4484,-1.4483,0,-1.3782,-1.3882,-1.3953,-1.3983,-1.4061,-1.4094,-1.4128,-1.4185,-1.4224,-1.4281,-1.4306,-1.437,-1.4406,-1.4455,-1.4492,-1.4474,-1.4581,-1.4563,-1.4601,-1.4601,-1.4624,-1.4622,-1.471,-1.4644,-1.4644,-1.4643,-1.4643,0,-1.3852,-1.3911,-1.3968,-1.4012,-1.4079,-1.4115,-1.4181,-1.4217,-1.4267,-1.4319,-1.434,-1.4389,-1.4434,-1.4489,-1.4518,-1.4591,-1.4606,-1.4626,-1.4633,-1.4625,-1.4622,-1.4648,-1.4645,-1.4646,-1.4645,-1.4645,-1.4644,0,-1.3896,-1.3936,-1.4015,-1.4083,-1.4102,-1.4148,-1.4207,-1.4251,-1.4284,-1.435,-1.4368,-1.4421,-1.4487,-1.4528,-1.4612,-1.4632,-1.4712,-1.4717,-1.4692,-1.4695,-1.4732,-1.4728,-1.484,-1.4857,-1.4778,-1.4779,-1.4779,0,-1.3938,-1.3984,-1.4056,-1.4093,-1.4127,-1.4185,-1.4225,-1.4263,-1.4304,-1.4374,-1.441,-1.4477,-1.4533,-1.4638,-1.4685,-1.4749,-1.4757,-1.4792,-1.4767,-1.4757,-1.4759,-1.4756,-1.4762,-1.4796,-1.4796,-1.4797,-1.4797,0,-1.4008,-1.4026,-1.4082,-1.4146,-1.4193,-1.4245,-1.4297,-1.4326,-1.4373,-1.4418,-1.4486,-1.4529,-1.4615,-1.4682,-1.4751,-1.4787,-1.4801,-1.4805,-1.4817,-1.481,-1.4794,-1.4804,-1.4704,-1.4802,-1.4802,-1.4801,-1.4801,-1.4801,-1.4053,-1.4096,-1.4154,-1.4216,-1.4259,-1.4308,-1.4353,-1.4392,-1.4449,-1.4522,-1.4541,-1.4612,-1.467,-1.4764,-1.4802,-1.4859,-1.4854,-1.4872,-1.4877,-1.4881,-1.4882,-1.4784,-1.4872,-1.4872,-1.4872,-1.4871,-1.4871,0,-1.4126,-1.4165,-1.4222,-1.4294,-1.4343,-1.4351,-1.441,-1.4451,-1.4513,-1.4566,-1.4621,-1.4699,-1.4764,-1.4816,-1.4884,-1.492,-1.4928,-1.4936,-1.4935,-1.4943,-1.4882,-1.4865,-1.4929,-1.4929,-1.4929,-1.4929,-1.4929,-1.4929,-1.417,-1.4242,-1.4267,-1.4362,-1.44,-1.447,-1.4503,-1.4548,-1.4591,-1.4677,-1.4731,-1.4765,-1.4818,-1.489,-1.495,-1.4964,-1.4989,-1.4996,-1.5011,-1.4953,-1.4947,-1.4941,-1.4925,-1.5001,-1.5001,-1.5068,-1.5068,-1.5069]}]]